Wind_Speed
10 8 5 2 1 4 9 8 16 16 7 5 5 6 5 7 6 5 11 12 16 17 20 23 25 19 21 23 17 13 14 20 28 24 25 22 17 14 13 12 10 11 11 11 11 11 10 10 10
7 5 1 5 1 4 8 15 16 12 7 7 7 8 9 12 10 7 10 14 20 17 22 24 24 22 22 23 14 18 16 19 16 24 23 21 18 18 17 14 13 11 11 12 12 12 11 10 10
4 1 5 1 3 7 11 16 10 9 8 9 13 14 15 13 12 9 9 13 16 15 18 22 21 23 24 24 19 19 20 21 20 27 23 22 21 19 17 15 15 14 13 13 12 11 11 11 11
3 4 2 3 6 11 12 7 6 8 9 12 15 18 17 17 18 13 12 15 18 19 21 23 25 27 25 29 23 23 24 27 26 28 26 24 23 21 19 17 17 17 16 14 12 10 10 10 11
3 7 6 4 8 10 3 4 5 9 11 12 14 20 23 21 17 15 17 19 20 18 21 21 24 23 33 28 29 32 32 30 28 30 27 26 25 22 21 20 19 17 16 14 13 12 11 12 11
7 8 5 4 6 4 3 5 7 13 20 20 22 23 23 18 14 13 12 12 15 20 22 27 25 35 28 31 43 36 38 37 33 36 28 28 25 24 23 20 18 16 15 13 12 12 13 13 14
9 11 5 2 7 7 6 7 14 16 19 20 19 22 22 14 13 8 10 11 11 18 25 27 29 32 38 38 39 37 42 40 34 32 29 28 28 26 24 22 20 17 14 13 13 14 15 15 16
12 14 9 2 4 7 9 11 14 17 18 18 17 17 18 20 14 12 11 10 8 13 20 27 31 33 34 39 33 34 41 41 37 35 34 31 30 28 25 22 18 15 15 14 16 17 17 15 15
14 13 12 7 6 12 12 15 16 18 16 19 18 17 14 14 13 14 14 14 8 12 10 11 17 23 35 31 31 55 42 42 40 36 35 34 33 29 25 22 18 16 15 14 13 16 18 17 15
17 16 14 7 14 14 15 14 16 19 19 21 21 19 18 17 15 16 15 15 12 13 11 18 13 4 7 19 36 39 44 40 38 38 38 36 33 30 26 20 17 15 14 15 13 14 16 14 12
17 15 10 11 13 13 15 16 19 20 21 21 21 18 15 15 17 20 21 20 15 13 13 13 6 4 2 7 4 35 49 48 41 41 38 36 34 31 26 22 17 13 14 12 11 10 16 15 12
20 15 14 12 15 15 16 19 20 21 21 25 23 16 13 18 25 21 23 22 17 15 15 12 12 9 7 3 12 40 47 44 42 45 40 38 35 30 26 22 17 11 10 11 9 6 9 12 11
24 20 18 14 13 14 17 20 21 25 26 25 23 15 15 19 24 14 8 15 19 14 11 13 11 8 9 5 8 19 41 41 45 41 40 40 35 31 27 21 17 15 9 8 7 8 12 11 10
21 22 21 19 15 16 20 22 25 21 24 26 21 14 16 16 20 11 5 13 16 16 13 10 12 11 12 8 8 17 31 37 49 49 48 37 35 31 27 23 20 16 13 8 8 10 12 12 11
21 24 23 21 21 21 23 28 24 20 20 21 19 14 16 15 16 16 5 13 18 17 13 17 12 14 11 13 13 18 27 34 36 39 40 39 34 31 27 23 20 18 18 10 6 10 14 14 11
19 21 22 8 8 11 17 26 17 14 17 17 16 14 13 9 11 12 8 2 11 16 13 22 20 15 15 20 19 22 31 34 36 35 34 35 34 28 27 24 21 19 22 9 4 13 15 13 12
20 21 16 11 7 10 12 20 16 18 16 17 18 15 13 10 9 10 9 8 2 8 19 21 20 19 18 21 22 23 37 39 38 34 36 37 34 30 28 25 24 23 26 14 11 13 14 14 14
22 18 21 17 11 12 18 17 11 15 14 15 17 16 11 10 7 8 8 7 8 4 9 24 28 26 23 23 24 31 35 41 37 37 39 37 35 34 33 29 25 28 21 17 20 15 14 14 13
18 14 15 19 14 16 16 18 8 13 16 15 11 10 10 8 6 6 8 8 9 12 10 21 24 28 22 27 37 35 39 42 41 38 37 42 48 45 35 30 31 26 23 19 17 17 16 16 14
22 21 21 19 14 14 15 17 16 16 16 15 15 13 12 7 6 3 4 6 9 13 16 3 21 30 15 19 24 23 34 42 40 45 47 45 49 43 37 33 30 30 23 22 20 19 17 16 15
25 24 21 18 15 16 15 22 17 16 19 18 14 13 14 11 7 6 3 1 4 9 12 11 16 21 27 26 28 21 33 41 34 45 48 48 52 40 45 36 33 32 27 24 24 22 19 17 17
31 23 17 18 19 13 17 11 22 18 23 20 17 12 11 10 7 7 5 3 1 4 7 10 9 8 11 23 26 20 40 34 26 41 48 47 44 31 31 33 31 31 29 27 26 25 22 22 21
31 19 18 15 20 24 22 13 19 19 21 23 19 14 10 10 7 3 7 8 5 3 2 5 9 9 6 12 9 20 27 34 31 29 36 31 40 28 30 35 38 36 32 31 30 27 25 25 25
19 16 13 16 20 8 23 19 13 18 24 24 20 17 12 13 9 7 6 8 8 7 4 3 5 7 9 10 9 7 13 20 28 32 31 29 32 34 33 35 39 37 33 31 29 28 29 29 31
25 17 1 2 2 6 13 16 25 21 22 17 12 15 12 13 15 12 7 3 2 7 7 6 5 5 7 9 11 12 14 16 15 18 21 23 25 28 30 32 34 33 31 32 32 33 33 34 37
27 26 9 6 4 4 9 8 11 7 8 16 18 16 16 13 19 16 12 8 4 2 7 9 8 7 6 7 8 10 12 13 15 15 17 18 20 22 25 27 29 30 30 32 36 34 34 35 39
23 18 25 17 3 2 8 12 17 25 25 16 18 11 15 15 16 18 17 15 11 9 6 7 12 12 11 11 10 10 11 12 13 14 15 16 19 22 25 28 30 32 34 39 39 37 39 33 29
33 14 16 11 5 5 4 6 11 9 20 13 9 13 13 15 15 18 18 17 16 16 15 15 12 17 17 16 16 17 18 18 18 19 20 21 23 24 25 28 30 32 32 39 34 30 30 30 32
23 31 24 14 13 4 2 6 10 14 5 8 8 9 9 12 13 14 13 13 13 17 21 19 19 16 17 15 19 22 23 24 24 25 25 27 27 28 27 33 34 35 34 34 35 31 31 31 31
11 13 25 23 8 10 11 16 12 10 3 6 8 10 11 11 10 11 12 12 12 8 12 18 23 22 20 21 17 25 26 25 28 30 31 31 31 32 32 35 39 41 36 37 38 34 31 31 33
Wind_Direction
326 327 345 325 88 51 23 359 342 339 328 315 329 342 330 322 340 298 292 276 252 258 276 244 203 218 219 220 213 198 207 230 210 225 231 231 220 210 202 193 180 165 159 149 147 148 141 131 130
324 333 127 120 42 359 344 355 347 342 336 325 315 308 300 310 315 312 306 250 245 245 229 218 217 219 212 217 220 208 225 198 232 232 216 212 206 201 196 190 182 174 160 155 159 148 137 140 139
313 48 131 219 320 334 316 338 358 4 325 303 304 301 298 297 296 278 263 237 226 230 225 213 213 209 206 200 197 237 229 200 217 221 207 204 198 194 193 189 184 179 166 160 161 153 152 148 147
282 207 155 236 313 338 326 332 12 359 321 307 308 303 298 297 293 278 255 239 241 229 218 207 206 203 205 209 205 213 209 219 202 210 202 195 189 188 189 191 187 175 165 164 167 164 157 157 152
249 213 228 267 334 345 0 31 359 347 353 336 319 315 309 296 285 270 257 248 241 223 216 207 208 211 199 223 201 216 217 199 198 206 197 190 186 185 190 192 185 172 163 168 172 169 162 160 162
237 217 235 310 7 34 15 346 351 343 336 329 316 311 313 296 289 263 267 268 249 228 219 212 205 208 210 228 222 224 218 199 192 206 195 190 183 187 191 191 185 175 168 171 172 166 161 160 158
220 224 236 347 25 20 343 342 332 328 330 313 314 313 307 300 298 299 274 257 250 214 213 207 207 214 223 222 215 215 213 185 185 189 190 189 184 184 188 188 189 178 165 163 158 156 155 155 149
221 232 235 218 6 325 313 292 311 322 333 326 329 319 304 297 279 287 282 259 242 247 240 214 224 225 230 220 229 226 209 186 184 188 185 187 181 182 188 192 189 173 160 156 153 152 151 150 150
224 227 217 241 289 305 294 277 290 306 317 330 321 317 319 313 289 283 274 251 233 256 246 234 234 224 232 240 249 208 187 184 178 179 184 184 182 183 189 194 185 169 157 152 161 157 155 159 154
216 229 224 261 306 299 286 285 296 295 312 327 322 319 311 306 304 297 284 261 237 246 238 263 208 65 85 351 224 217 199 170 173 181 178 184 182 184 185 185 185 173 160 162 162 156 158 161 147
225 233 245 258 296 305 289 297 299 307 312 319 325 331 315 305 309 294 280 264 242 230 241 232 314 253 171 45 329 185 174 168 177 179 178 182 184 183 181 185 186 183 167 158 160 154 164 163 154
234 239 262 259 275 291 293 300 305 307 317 319 325 326 320 316 322 302 271 242 239 226 223 227 241 257 224 91 18 186 179 173 171 175 179 185 185 189 184 186 183 185 176 154 144 223 172 167 161
231 241 250 262 265 278 288 305 306 309 313 314 325 329 320 330 330 307 262 228 231 225 230 230 236 225 216 222 140 165 184 177 169 179 177 187 193 188 185 183 182 184 173 154 161 202 195 174 164
231 241 251 252 256 274 284 295 294 313 313 306 319 325 323 335 339 318 276 223 213 212 234 216 227 213 211 215 192 168 193 185 176 182 181 191 192 189 191 188 194 181 185 196 171 208 199 185 177
244 254 257 255 255 269 282 285 290 310 318 312 320 319 322 343 354 351 339 214 220 205 211 193 234 208 204 222 191 182 178 193 189 187 177 186 190 193 197 198 193 188 203 177 189 219 209 196 191
241 257 271 268 246 279 276 285 319 307 320 315 314 321 328 337 1 13 4 101 200 205 215 234 220 220 212 213 200 192 183 181 180 179 176 188 193 197 201 197 198 199 216 194 218 232 217 204 208
241 251 256 245 251 301 299 276 292 307 320 308 311 316 324 323 352 16 24 36 334 239 214 235 214 213 218 200 208 204 191 184 184 185 186 197 194 200 209 206 204 209 215 223 237 251 224 218 216
235 249 252 248 256 281 291 286 296 292 304 310 303 314 318 316 339 5 17 24 11 345 249 215 210 214 218 210 202 210 194 186 186 192 194 198 197 200 206 203 204 210 213 238 240 244 228 227 228
244 250 246 240 250 286 283 290 289 302 293 303 307 303 312 313 307 349 4 2 10 3 347 215 199 213 204 218 209 204 202 181 185 197 200 200 207 211 205 208 207 220 224 229 240 242 231 230 233
241 249 247 240 243 289 283 287 290 298 301 311 296 279 280 300 271 292 350 359 7 11 7 181 197 193 185 196 197 210 209 194 211 191 203 208 216 225 208 208 211 221 230 232 245 245 235 232 238
237 242 247 241 250 284 289 282 286 283 294 295 306 282 267 285 265 237 241 338 6 26 30 73 173 193 203 208 213 215 200 213 225 192 210 211 224 230 213 206 211 222 228 234 245 241 234 235 241
239 236 242 248 273 281 296 276 287 285 285 289 290 277 264 264 274 242 231 224 246 33 48 58 90 151 185 230 215 225 208 217 224 206 210 223 232 228 229 211 218 221 229 234 240 238 240 240 249
238 241 233 257 278 284 279 266 277 278 278 281 282 289 269 243 249 242 199 223 225 189 84 84 94 105 147 205 197 207 211 217 222 214 217 231 233 245 234 215 215 222 224 235 242 242 243 247 254
230 234 251 271 273 248 269 245 280 262 277 289 278 270 286 225 226 240 231 239 231 218 196 161 133 120 123 120 129 146 190 193 202 221 226 223 216 211 213 219 218 220 226 241 246 249 250 254 256
227 225 213 260 215 231 248 230 256 275 279 281 273 264 259 233 217 223 216 220 288 248 227 211 199 168 150 145 144 149 159 172 177 190 201 203 203 205 207 209 213 221 233 240 248 248 253 255 262
213 210 176 197 195 243 208 229 248 270 270 281 276 258 233 226 215 216 217 196 184 232 248 235 221 213 201 183 176 178 179 180 185 193 197 202 207 213 217 221 226 232 239 250 253 252 254 253 261
220 214 229 246 297 270 240 247 259 276 283 286 263 234 224 230 215 213 224 226 222 218 239 255 236 227 217 214 213 206 212 213 212 215 217 216 219 220 223 229 233 240 249 248 244 245 253 259 255
230 240 208 207 175 222 241 237 235 280 303 274 237 241 230 224 215 219 222 229 237 244 242 246 236 231 232 227 225 223 220 223 223 223 221 228 235 239 240 242 243 244 247 256 269 258 255 255 255
214 225 239 248 244 193 206 250 274 283 263 272 227 224 209 206 225 232 237 234 241 247 255 255 257 251 238 234 239 238 238 238 235 233 232 234 231 232 238 244 241 241 244 249 250 248 253 260 264
245 255 242 231 236 237 246 245 245 273 253 253 236 227 234 222 222 238 253 236 234 240 239 249 245 242 247 237 250 237 244 245 253 247 244 245 246 248 248 251 259 247 242 247 251 255 259 262 269
Height
3123 3122 3121 3122 3126 3123 3123 3123 3119 3118 3117 3116 3116 3115 3115 3115 3114 3117 3114 3112 3112 3114 3116 3116 3118 3121 3124 3127 3131 3133 3136 3136 3140 3144 3148 3150 3152 3153 3155 3156 3156 3157 3159 3160 3160 3161 3162 3162 3163
3122 3121 3121 3122 3123 3122 3122 3121 3118 3117 3116 3115 3115 3114 3114 3113 3111 3110 3110 3110 3110 3111 3113 3116 3116 3119 3123 3125 3126 3132 3132 3135 3143 3146 3146 3148 3150 3152 3155 3155 3156 3157 3160 3161 3161 3162 3163 3164 3165
3121 3120 3121 3121 3121 3121 3121 3119 3117 3116 3116 3114 3113 3112 3111 3110 3109 3108 3107 3108 3108 3109 3110 3111 3113 3118 3121 3123 3125 3128 3130 3135 3139 3143 3144 3146 3149 3152 3154 3154 3156 3158 3161 3162 3163 3163 3164 3164 3165
3120 3121 3121 3120 3120 3120 3119 3117 3116 3115 3114 3113 3111 3110 3108 3106 3105 3104 3105 3105 3106 3106 3106 3107 3110 3113 3117 3119 3120 3126 3129 3132 3135 3141 3142 3145 3148 3150 3153 3154 3156 3159 3161 3162 3163 3164 3163 3164 3165
3119 3119 3118 3118 3119 3118 3116 3115 3114 3113 3112 3111 3109 3106 3105 3102 3101 3099 3100 3100 3101 3102 3104 3106 3107 3110 3111 3117 3118 3123 3125 3128 3134 3138 3141 3143 3146 3149 3152 3154 3157 3160 3161 3162 3163 3164 3163 3164 3166
3117 3117 3117 3117 3116 3115 3115 3114 3113 3112 3112 3110 3107 3103 3101 3098 3098 3096 3095 3096 3096 3099 3100 3102 3104 3104 3107 3112 3113 3116 3120 3124 3129 3136 3140 3143 3146 3150 3152 3155 3158 3161 3162 3163 3163 3164 3163 3165 3167
3115 3115 3115 3115 3114 3114 3114 3113 3112 3111 3109 3107 3104 3100 3098 3096 3094 3093 3092 3092 3092 3092 3094 3096 3100 3101 3101 3101 3105 3110 3111 3118 3125 3131 3137 3142 3146 3150 3152 3154 3157 3160 3162 3163 3164 3164 3163 3166 3168
3112 3113 3113 3113 3112 3112 3112 3111 3110 3109 3107 3105 3101 3098 3096 3093 3092 3091 3090 3089 3090 3090 3077 3089 3092 3094 3095 3095 3096 3103 3107 3116 3121 3129 3135 3141 3145 3149 3152 3153 3155 3160 3163 3163 3164 3164 3164 3166 3168
3110 3111 3110 3111 3111 3110 3109 3108 3107 3105 3103 3102 3099 3096 3093 3091 3089 3088 3087 3087 3087 3085 3087 3086 3087 3090 3087 3090 3091 3088 3098 3109 3117 3125 3133 3139 3144 3148 3150 3152 3154 3160 3162 3163 3164 3164 3165 3166 3168
3107 3107 3108 3109 3108 3107 3106 3105 3104 3102 3100 3100 3097 3093 3091 3088 3086 3084 3084 3084 3084 3082 3085 3084 3086 3087 3089 3085 3085 3090 3096 3106 3116 3126 3131 3138 3143 3148 3149 3151 3154 3159 3162 3164 3164 3165 3167 3168 3169
3104 3104 3106 3106 3105 3104 3103 3102 3100 3099 3098 3097 3096 3091 3088 3085 3083 3081 3079 3081 3081 3081 3081 3083 3085 3085 3086 3085 3089 3090 3094 3100 3115 3125 3130 3137 3142 3147 3150 3151 3153 3158 3161 3163 3163 3164 3167 3167 3168
3102 3103 3103 3104 3102 3101 3100 3099 3097 3096 3095 3095 3094 3089 3085 3083 3078 3075 3074 3074 3077 3079 3080 3082 3083 3085 3086 3088 3086 3088 3095 3099 3107 3121 3129 3135 3141 3147 3150 3153 3155 3155 3159 3162 3162 3165 3165 3168 3169
3098 3100 3100 3101 3100 3099 3098 3097 3094 3092 3092 3092 3092 3088 3084 3080 3076 3072 3069 3070 3072 3077 3079 3080 3082 3084 3087 3087 3089 3092 3097 3099 3107 3117 3125 3134 3141 3147 3150 3153 3157 3157 3158 3160 3161 3163 3166 3167 3168
3095 3097 3097 3097 3097 3096 3095 3093 3091 3091 3090 3089 3089 3087 3083 3080 3074 3071 3068 3068 3071 3076 3078 3079 3081 3084 3088 3090 3093 3094 3097 3102 3106 3113 3121 3134 3141 3146 3150 3152 3157 3156 3158 3160 3160 3163 3165 3166 3168
3093 3093 3093 3094 3095 3093 3092 3089 3088 3089 3088 3086 3086 3084 3081 3077 3075 3070 3067 3066 3070 3073 3076 3077 3080 3084 3086 3089 3091 3094 3099 3103 3108 3115 3120 3132 3139 3144 3149 3152 3154 3155 3159 3159 3160 3163 3165 3165 3166
3090 3090 3090 3090 3090 3091 3090 3085 3087 3086 3085 3084 3084 3083 3080 3078 3074 3073 3071 3068 3069 3071 3073 3074 3077 3080 3085 3088 3091 3095 3099 3104 3110 3117 3122 3131 3138 3143 3147 3150 3152 3154 3158 3158 3160 3163 3163 3164 3166
3086 3086 3087 3088 3088 3088 3087 3083 3083 3083 3083 3082 3081 3080 3079 3076 3074 3072 3072 3071 3070 3069 3068 3071 3074 3076 3082 3085 3090 3093 3098 3105 3110 3115 3122 3130 3135 3140 3145 3148 3150 3153 3156 3156 3159 3161 3162 3163 3164
3082 3083 3083 3084 3087 3085 3084 3080 3081 3080 3079 3080 3079 3079 3078 3074 3073 3073 3073 3072 3070 3068 3066 3065 3070 3073 3077 3084 3088 3090 3095 3101 3109 3114 3121 3127 3132 3135 3140 3145 3147 3152 3152 3155 3157 3158 3160 3160 3160
3080 3080 3080 3081 3083 3082 3079 3077 3077 3077 3075 3076 3077 3077 3075 3073 3072 3071 3071 3071 3070 3066 3062 3061 3064 3069 3075 3080 3084 3085 3089 3098 3105 3113 3119 3123 3124 3128 3134 3140 3144 3148 3150 3152 3153 3154 3155 3157 3158
3075 3076 3076 3078 3080 3079 3076 3073 3073 3073 3073 3072 3073 3073 3074 3072 3071 3070 3071 3070 3069 3065 3060 3054 3061 3069 3073 3077 3082 3087 3089 3095 3097 3105 3111 3116 3117 3123 3130 3136 3140 3145 3146 3148 3150 3152 3153 3155 3155
3070 3070 3074 3076 3076 3075 3074 3070 3069 3070 3070 3070 3069 3069 3070 3070 3070 3070 3070 3070 3070 3069 3066 3062 3064 3066 3072 3076 3078 3083 3086 3090 3093 3100 3104 3110 3113 3118 3123 3127 3133 3138 3141 3144 3146 3149 3150 3151 3151
3065 3067 3071 3073 3075 3073 3072 3066 3066 3066 3066 3066 3067 3067 3067 3068 3068 3069 3070 3070 3069 3069 3069 3066 3065 3067 3069 3074 3075 3079 3082 3086 3093 3098 3101 3105 3111 3115 3119 3124 3129 3134 3137 3140 3143 3144 3145 3146 3147
3061 3066 3068 3071 3071 3071 3068 3069 3061 3062 3061 3062 3063 3064 3065 3066 3066 3068 3068 3069 3069 3069 3070 3071 3070 3070 3070 3072 3072 3076 3082 3087 3091 3094 3098 3102 3105 3109 3115 3119 3123 3128 3130 3136 3139 3139 3139 3140 3141
3061 3063 3065 3067 3067 3065 3064 3066 3055 3057 3058 3057 3058 3060 3062 3063 3065 3065 3066 3066 3068 3069 3071 3072 3072 3073 3074 3072 3073 3076 3079 3081 3085 3090 3095 3098 3102 3106 3110 3115 3120 3124 3127 3130 3133 3133 3134 3134 3133
3055 3059 3061 3064 3064 3060 3059 3060 3053 3054 3053 3054 3055 3056 3058 3060 3062 3063 3064 3065 3066 3068 3070 3071 3072 3073 3075 3077 3078 3080 3081 3084 3088 3091 3094 3097 3100 3104 3109 3112 3116 3119 3123 3125 3126 3125 3126 3126 3125
3047 3051 3053 3061 3061 3056 3055 3052 3050 3050 3050 3051 3051 3051 3053 3056 3058 3061 3063 3064 3065 3067 3068 3070 3071 3073 3075 3076 3078 3079 3082 3085 3089 3092 3094 3095 3098 3103 3107 3110 3112 3114 3116 3117 3117 3117 3118 3117 3118
3045 3045 3052 3052 3053 3054 3050 3047 3047 3046 3046 3046 3045 3046 3050 3053 3055 3057 3060 3061 3063 3065 3067 3068 3070 3071 3074 3076 3078 3079 3081 3084 3087 3089 3091 3094 3098 3099 3102 3105 3107 3108 3109 3109 3107 3108 3108 3109 3111
3039 3044 3047 3047 3051 3051 3044 3044 3044 3044 3043 3043 3042 3044 3046 3050 3052 3054 3057 3059 3060 3062 3063 3065 3067 3068 3071 3074 3076 3078 3080 3082 3084 3085 3087 3090 3092 3094 3096 3098 3099 3101 3102 3102 3099 3100 3103 3104 3104
3035 3036 3039 3041 3041 3040 3042 3038 3040 3040 3042 3041 3042 3042 3044 3047 3050 3052 3054 3055 3057 3058 3059 3061 3063 3064 3067 3070 3073 3074 3077 3078 3079 3080 3082 3083 3085 3087 3089 3091 3091 3090 3091 3092 3094 3094 3095 3096 3097
3031 3033 3034 3034 3036 3034 3033 3033 3039 3041 3041 3041 3041 3043 3044 3045 3047 3049 3051 3051 3052 3053 3054 3055 3057 3058 3063 3065 3066 3068 3070 3072 3073 3074 3076 3077 3079 3081 3083 3082 3082 3081 3081 3083 3084 3085 3087 3087 3088